カタログに戻る

STARLINK-30864

運用中通信VLEO
NORAD 58243·PAYLOAD·🇺🇸 United States

打ち上げ Nov 8, 2023 から Cape Canaveral Space Force Station

Loading…

次のパス (今後24時間)

TLE

最新Source: CelesTrak SupGP

元期: Sep 15, 2026, 03:20 UTC

1 58243C 23171P   26258.13937500  .00009895  00000+0  35838-3 0  2585
2 58243  43.0011 295.3805 0001373 262.1108 245.0061 15.27575462    12

AllMySatでSTARLINK-30864をリアルタイム追跡

Download on the App Store